Погода в Кирсе

Погода в Кирсе : погода сейчас, прогноз погоды и архив. Всё, что Вы хотите узнать о погоде в Кирсе!

Поиск расширенной информации на нашем сайте:

Другие новости

Новости СМИ2

Главная страница сайта

Новости сайта

03.07.2017

Напоминаем, что на нашем специализированном сайте Метеоцентр.Азия вы можете получить высокодетализированные автоматические прогнозы погоды по пунктам России, СНГ и мира в авиационном формате (включающие направление и скорость ветра, видимость, явления погоды, количество и форму облачности, нижнюю и верхнюю границу облачности).


Погода в Кирсе - сегодня

Время (UTC), дата Ветер
(°,м/с) 
Видим.   Явления Облачность Т
(°С)
Тd
(°С)
f(%) Тe
(°С)
Pmin
(гПа)
dP
(гПа)
Po
(мм)
O2
(г/м3)
Тmin Tmax R s Состояние
почвы
03 10.06.18 320 (СЗ) 3-6{06}  20000 м    10/10 300 м кучево-дожд. 
[Cb cap]
+6.9 +5.8 93 +6  1001.6  0.8  736  288  +6.2    10    влажная 
15 10.06.18 320 (СЗ) 3-5{07}  20000 м  {гроза, ливн. осадки}  10/6 300 м кучево-дожд., верхняя 
[Cb cap|Cs]
+9.8 +2.5 60 +9  1005.1  0.3  739  287    +12.9  0.3     
03 11.06.18 тихо () -0{03}  20000 м    8/8 300 м кучево-дожд. 
[Cb cap]
+7.5 +0.6 62 +8  1007.7  0.7  740  290  +2.5    0.6    влажная 
15 11.06.18 220 (ЮЗ) 2-3{04}  20000 м    10/5 600 м кучево-дожд., средняя, верхняя 
[Cb cap|Ac trans|Ci fib]
+11.6 +1.1 48 +12  1007.5  -0.4  741  286    +11.7  0.8     
03 12.06.18 200 (Ю) 2-3{03}  20000 м    10/6 300 м кучево-дожд., средняя 
[Cb cap|Ac trans]
+8.2 +5.6 84 +8  1007.9  741  289  +3.9    0.0    влажная 
15 12.06.18 180 (Ю) 4-6{08}  20000 м    10/8 300 м кучево-дожд., средняя 
[Cb cap|Ac trans]
+15.7 +6.2 53 +16  1003.1  -1.8  737  280    +16  0.6     
03 13.06.18 220 (ЮЗ) 3-6{07}  8000 м  слаб. ливневой дождь  10/10 300 м кучево-дожд. 
[Cb cap]
+12.5 +11.2 92 +15  997.2  -1.6  733  280  +11      влажная 
15 13.06.18 200 (Ю) 3-6{10}  20000 м  {ливн. осадки}  9/9 300 м кучево-дожд. 
[Cb cap]
+15.5 +12.6 83 +21  994.1  -0.3  731  276    +16.4  0.5     
03 14.06.18 320 (СЗ) 3-7{09}  20000 м    9/9 600 м 
[Sc]
+9 +5.9 81 +8  1002.9  1.9  737  286  +8.5    0.8    влажная 
15 14.06.18 320 (СЗ) 3-7{11}  20000 м  в посл. час ливневой дождь  8/8 300 м кучево-дожд. 
[Cb cap]
+10.7 +4.8 67 +10  1010.3  1.9  743  287    +12.4  0.7     
03 15.06.18 300 (СЗ) 3-6{06}  20000 м    ясно 
+6.6 +2.2 73 +6  1013.8  0.6  745  293  +3    0.1    влажная 
15 15.06.18 340 (С) 3-7{12}  20000 м    10/5 300 м средняя 
[Sc|Ac As]
+12.6 -1.4 38 +12  1013.7  0.6  745  287    +14.7       
03 16.06.18 330 (СЗ) 2-5{06}  20000 м    10/10 300 м кучево-дожд. 
[Cb cap]
+8.6 +4.5 75 +9  1015  0.9  746  291  +8.1        сухая 
15 16.06.18 330 (СЗ) 4-7{08}  20000 м    8/8 300 м кучево-дожд. 
[Cb cap]
+19 +4.1 37 +19  1014.3  -0.6  746  280    +19.8  0.0     
03 17.06.18 330 (СЗ) 1-2{05}  20000 м    9/8 300 м верхняя 
[Sc|Ci fib]
+12.2 +6.1 66 +13  1014.5  -0.2  746  287  +6.7        сухая 
03 18.06.18 290 (З) 1-1{02}  20000 м    3/0 верхняя 
[Ci fib]
+14.7 +9.3 70 +16  1012.5  -0.8  744  283  +8        сухая 
15 18.06.18 360 (С) 3-6{09}  20000 м    3/3 1000 м 
[Cu hum]
+25.7 +5.1 27 +26  1008.5  -0.6  742  272    +26       
18 18.06.18 330 (СЗ) 1-2{06}  20000 м    ясно 
+19.8 +9 50 +21  1008.6  -0.3  742  277           
21 18.06.18 тихо () -0{02}  20000 м    ясно 
+12.2 +8 75 +12  1009  -0.1  742  285           
03 19.06.18 тихо () -0{00}  20000 м    3/0 средняя 
[Ac trans]
+15.5 +10.6 73 +18  1009.2  0.2  742  281  +9.5        сухая 
15 19.06.18 310 (СЗ) 1-2{07}  20000 м    6/3 600 м средняя 
[Cu med, cong|Ac cuf]
+25.9 +3.8 24 +26  1004.1  -1.3  739  271    +27.2       
03 20.06.18 190 (Ю) 1-3{03}  20000 м    10/5 300 м кучево-дожд., средняя, верхняя 
[Cb cap|Ac trans|Ci fib]
+16.9 +11.3 70 +21  999.4  -1.9  735  277  +14.2        сухая 
15 20.06.18 240 (ЮЗ) 3-5{10}  20000 м  {ливн. осадки}  10/5 300 м кучево-дожд., средняя, верхняя 
[Cb cap|Ac trans|Ci fib]
+13.9 +10.9 82 +17  992.8  730  278    +23.9     
03 21.06.18 240 (ЮЗ) 4-7{08}  12000 м  слаб. ливневой дождь  10/10 300 м кучево-дожд. 
[Cb cap]
+9.8 +8.1 89 +9  992.6  -0.3  729  282  +8.8    0.0    влажная 
15 21.06.18 240 (ЮЗ) 2-4{08}  20000 м    10/10 300 м кучево-дожд. 
[Cb cap]
+12.3 +11 92 +16  994.4  1.7  731  280    +14.8     
Время (UTC), дата Ветер
(°,м/с) 
Видим.   Явления Облачность Т
(°С)
Тd
(°С)
f(%) Тe
(°С)
Pmin
(гПа)
dP
(гПа)
Po
(мм)
O2
(г/м3)
Тmin Tmax R s Состояние
почвы

Для получения пояснительной информации подведите курсор к названию столбца.

ПОГОДА в Кирсе - архив

Всё, что Вы хотите узнать о погоде в Кирсе - удобно и подробно!

Выберите нужную дату (начиная с 1 января 2015* года) и нажмите кнопку "Найти".
Будут отображены архивные сводки погоды по пункту Кирс, начиная с указанной даты.


Отображать данные в формате CSV (для использования в таблицах Excel)


Внимание! Наш архив погоды предназначен исключительно для личного некоммерческого использования в познавательных целях. Если Вам необходимы официальные справки о состоянии погоды (для производственных, юридических, коммерческих и т.п. целей), обращайтесь в органы Росгидромета.

*Примечание: данная дата относится к архиву по метеостанциям СССР (Россия, СНГ, Балтия).
Архив по метеостанциям Зарубежной Европы и Азии (кроме Китая) хранится 10 дней, по другим регионам земного шара (Китай, Африка, Америка, Австралия, Океания) - 1 день.

Кирс - район местоположения метеостанции


Название, широта, долгота, высота метеостанции:
Кирс 59.4°ш. 52.2°д. 169 м над ур. моря [Российская Федерация]

Дополнительная информация

В oтличие oт бoльшинства пoгoдных сайтoв мы публикуем пoдрoбную метеoинфoрмацию в детальнoм прoфессиoнальнoм фoрмате.

Характеристики температуры и влажнoсти вoздуха измеряются на высoте 2 м в тени вдали oт зданий и деревьев.
Скoрoсть ветра измеряется на высoте 10 м (на урoвне рoста челoвека скoрoсть ветра ниже в 1.5-2 раза). Если метеoстанция нахoдится в гoрoде или в лесу, тo скoрoсть ветра занижена на 2-4 м/с пo сравнению с oткрытым местoм. Скoрoсть ветра над акватoриями крупных рек и oзёр, а также на вершинах хoлмoв на 2-5 м/с выше, чем в oбычных услoвиях.
Атмoсфернoе давление в разных тoчках местнoсти мoжет значительнo oтличаться oт давления на метеoстанции, в зависимoсти oт услoвий рельефа (при пoдъёме на 10 м давление пoнижается примернo на 1 мм рт.ст.).